Flag for Rwanda Weather past 2 weeks in Butare, Rwanda

Now
73 °F

Partly cloudy.


Feels Like: 76 °F
Forecast: 55 / 69 °F
Wind: 3 mph from East

Location: Kigali Airport

Current Time: Jul 2, 2015 at 8:18:06 PM

Latest Report: Jul 2, 2015 at 8:00 PM


Visibility: N/A

Pressure: 30.18 "Hg

Humidity: 61%

Dew point: 59 °F

Location of ButareLocation

Historic Weather in Butare — Graph

°F

Butare temperature yesterday

Maximum temperature yesterday: 82 °F (at 3:00 PM)
Minimum temperature yesterday: 64 °F (at 6:30 AM)
Average temperature yesterday: 73 °F

Past Weeks' High & Low Weather Summary

 TemperatureHumidityPressure
High82 °F (Jun 28, 3:00 PM)100% (Jun 18, 4:00 AM)30.30 "Hg (Jun 18, 4:00 AM)
Low59 °F (Jun 30, 5:00 AM)45% (Jun 23, 3:30 PM)30.04 "Hg (Jun 17, 7:00 PM)
Average71 °F75%30.19 "Hg
* Reported Jun 17 7:00 PM — Jul 2 7:00 PM, Butare, Weather by CustomWeather, © 2015

Note: Actual official high and low records may vary slightly from our data, if they occured in-between our weather recording intervals... More about our weather records

Advertising

Butare weather history for previous 24 hours

 ConditionsComfort  
Time TempWeatherWind HumidityBarometerVisibility
7:00 PM
Thu, Jul 2
75 °FPartly cloudy.6 mph57%30.15 "HgN/A
6:30 PM75 °FPartly cloudy.7 mph57%30.15 "HgN/A
6:00 PM75 °FPartly sunny.8 mph57%30.12 "HgN/A
5:00 PM77 °FPartly sunny.10 mph54%30.12 "HgN/A
4:30 PM79 °FPartly sunny.10 mph51%30.12 "HgN/A
4:00 PM79 °FPartly sunny.8 mph51%30.09 "HgN/A
3:30 PM79 °FPartly sunny.9 mph51%30.12 "HgN/A
3:00 PM81 °FPartly sunny.7 mph51%30.12 "HgN/A
2:30 PM81 °FScattered clouds.9 mph51%30.12 "HgN/A
2:00 PM81 °FScattered clouds.8 mph48%30.15 "HgN/A
1:30 PM79 °FPartly sunny.8 mph54%30.15 "HgN/A
1:00 PM77 °FPartly sunny.6 mph57%30.18 "HgN/A
12:30 PM79 °FScattered clouds.10 mph54%30.18 "HgN/A
12:00 PM77 °FScattered clouds.12 mph57%30.21 "HgN/A
11:30 AM77 °FScattered clouds.12 mph57%30.21 "HgN/A
11:00 AM75 °FScattered clouds.9 mph61%30.24 "HgN/A
10:30 AM75 °FScattered clouds.12 mph61%30.24 "HgN/A
10:00 AM73 °FScattered clouds.6 mph69%30.24 "HgN/A
9:30 AM73 °FScattered clouds.6 mph69%30.24 "Hg5 mi
9:00 AM72 °FScattered clouds.No wind78%30.24 "Hg5 mi
8:30 AM70 °FScattered clouds.No wind78%30.24 "Hg5 mi
8:00 AM68 °FScattered clouds.No wind88%30.24 "Hg5 mi
7:30 AM66 °FScattered clouds.No wind94%30.21 "Hg5 mi
7:00 AM64 °FScattered clouds.No wind94%30.21 "Hg5 mi
6:30 AM64 °FBroken clouds.3 mph94%30.18 "HgN/A
6:00 AM63 °FPassing clouds.No wind100%30.18 "Hg5 mi
5:30 AM64 °FPassing clouds.3 mph94%30.18 "HgN/A
5:00 AM66 °FPassing clouds.No wind88%30.15 "HgN/A
4:30 AM66 °FPassing clouds.3 mph88%30.15 "HgN/A
4:00 AM64 °FPassing clouds.3 mph94%30.15 "HgN/A
3:30 AM66 °FPassing clouds.No wind88%30.15 "HgN/A
3:00 AM66 °FPassing clouds.No wind88%30.15 "HgN/A
2:30 AM66 °FPassing clouds.No wind88%30.15 "HgN/A
2:00 AM66 °FPassing clouds.3 mph88%30.15 "HgN/A
1:30 AM68 °FPassing clouds.3 mph83%30.18 "HgN/A
1:00 AM70 °FPartly cloudy.No wind78%30.18 "HgN/A
12:00 AM70 °FPartly cloudy.No wind78%30.18 "HgN/A
11:00 PM
Wed, Jul 1
70 °FPartly cloudy.3 mph78%30.18 "HgN/A
10:30 PM70 °FPassing clouds.No wind78%30.18 "HgN/A
10:00 PM70 °FPassing clouds.No wind73%30.18 "HgN/A
9:30 PM70 °FPassing clouds.No wind73%30.18 "HgN/A
9:00 PM72 °FPassing clouds.No wind69%30.18 "HgN/A
8:30 PM73 °FPassing clouds.No wind65%30.15 "HgN/A
8:00 PM73 °FPassing clouds.3 mph65%30.15 "HgN/A
Weather by CustomWeather, © 2015

See weather overviewHow to use our weather pages